User: anonymous   Login
Location: Unspecified
(0.0000°N, 0.0000°E)
Time: 04:10:16
(UTC+00:00)
Language:

USA 139 - Orbit

View from above orbital plane
View from above orbital plane
View from above satellite
View from above satellite

Ground track
Ground track

The orbit data is extracted from the following two-line orbital elements,

1 25336U 98029A   18011.75508954 0.00000000  00000-0  00000-0 0    04
2 25336   9.0094 356.5049 0043183 255.3080 104.3573  1.00270000    00
Epoch (UTC): 11 January 2018 18:07:19
Eccentricity: 0.0043183
inclination: 9.0094°
perigee height: 35604 km
apogee height: 35969 km
right ascension of ascending node: 356.5049°
argument of perigee: 255.3080°
revolutions per day: 1.00270000
mean anomaly at epoch: 104.3573°
orbit number at epoch: 0

The dashed part of the orbit path shows where the satellite is in the earth's shadow,  

DLR